Caldwell, NJ

12:50 AM EST on December 08, 2019 (GMT -0500)
Essex County

Weather History for KCDW - November, 2019

Change the Weather History Date:

Sunday, November 17, 2019

  Actual Average Record
Temperature  
Mean Temperature 34 °F -  
Max Temperature 42 °F 51 °F 69 °F (1960)
Min Temperature 25 °F 30 °F 17 °F (1967)
Degree Days  
Heating Degree Days 32    
Moisture  
Dew Point 21 °F    
Average Humidity 54    
Maximum Humidity 73    
Minimum Humidity 46    
Precipitation  
Precipitation 0.00 in - - ()
Sea Level Pressure  
Sea Level Pressure 30.29 in    
Wind  
Wind Speed 7 mph ()    
Max Wind Speed 15 mph    
Max Gust Speed 24 mph    
Visibility 10.0 miles    
Events      
Averages and records for this station are not official NWS values.
T = Trace of Precipitation, MM = Missing Value Source: Averaged Metar Reports

Daily Weather History Graph

Daily Weather History Graph

Search for Another Location

Airport or City:

Astronomy

Nov. 17, 2019 Rise Set
Actual Time 6:46 AM EST 4:37 PM EST
Civil Twilight 6:16 AM EST 5:06 PM EST
Nautical Twilight 5:43 AM EST 5:40 PM EST
Astronomical Twilight 5:10 AM EST 6:12 PM EST
Moon 9:10 PM EST (11/17) 11:30 AM EST (11/17)
Length of Visible Light 10h 50m
Length of Day
9h 50m
Waning Gibbous, 73% of the Moon is Illuminated
Nov 17
Waning Gibbous
Nov 19
Last Quarter
Nov 26
New
Dec 4
First Quarter
Dec 12
Full

Hourly Weather History & Observations

Time (EST) Temp. Windchill Dew Point Humidity Pressure Visibility Wind Dir Wind Speed Gust Speed Precip Events Conditions
12:53 AM 27.0 °F 23.0 °F 9.0 °F 47% 30.47 in 10.0 mi NNE 3.5 mph - N/A   Clear
1:53 AM 27.0 °F 21.6 °F 9.0 °F 47% 30.46 in 10.0 mi NE 4.6 mph - N/A   Clear
2:53 AM 26.1 °F 20.5 °F 8.1 °F 47% 30.45 in 10.0 mi NE 4.6 mph - N/A   Clear
3:53 AM 25.0 °F 18.1 °F 7.0 °F 46% 30.43 in 10.0 mi NNE 5.8 mph - N/A   Clear
5:53 AM 28.0 °F 22.8 °F 10.0 °F 47% 30.41 in 10.0 mi Variable 4.6 mph - N/A   Overcast
6:53 AM 30.0 °F 25.2 °F 12.0 °F 47% 30.40 in 10.0 mi Variable 4.6 mph - N/A   Overcast
7:53 AM 32.0 °F 25.6 °F 14.0 °F 48% 30.40 in 10.0 mi ENE 6.9 mph - N/A   Overcast
8:53 AM 35.1 °F 26.9 °F 17.1 °F 48% 30.40 in 10.0 mi ENE 11.5 mph - N/A   Overcast
9:53 AM 37.0 °F 28.5 °F 19.0 °F 48% 30.39 in 10.0 mi ENE 13.8 mph - N/A   Scattered Clouds
10:53 AM 39.9 °F 32.5 °F 21.0 °F 47% 30.36 in 10.0 mi NE 12.7 mph 24.2 mph N/A   Partly Cloudy
11:53 AM 41.0 °F 34.3 °F 23.0 °F 49% 30.33 in 10.0 mi ENE 11.5 mph 19.6 mph N/A   Partly Cloudy
12:53 PM 42.1 °F 36.6 °F 25.0 °F 51% 30.29 in 10.0 mi ENE 9.2 mph 20.7 mph N/A   Overcast
1:53 PM 42.1 °F 36.1 °F 25.0 °F 51% 30.26 in 10.0 mi NE 10.4 mph - N/A   Overcast
2:53 PM 42.1 °F 35.7 °F 25.0 °F 51% 30.24 in 10.0 mi NE 11.5 mph 18.4 mph N/A   Overcast
3:53 PM 42.1 °F 35.7 °F 26.1 °F 53% 30.22 in 10.0 mi NE 11.5 mph 16.1 mph N/A   Overcast
4:53 PM 41.0 °F 34.7 °F 27.0 °F 57% 30.20 in 10.0 mi ENE 10.4 mph 17.3 mph N/A   Overcast
5:00 PM 41.0 °F 34.7 °F 27.0 °F 57% 30.18 in 10.0 mi ENE 10.4 mph 18.4 mph N/A   Overcast
5:53 PM 41.0 °F 33.1 °F 27.0 °F 57% 30.20 in 10.0 mi ENE 15.0 mph - N/A   Overcast
6:53 PM 41.0 °F 36.4 °F 27.0 °F 57% 30.19 in 10.0 mi ENE 6.9 mph - N/A   Overcast
7:53 PM 39.9 °F 33.4 °F 28.0 °F 63% 30.17 in 10.0 mi ENE 10.4 mph - N/A   Overcast
8:53 PM 39.9 °F 33.4 °F 28.0 °F 63% 30.14 in 10.0 mi NE 10.4 mph - N/A   Overcast
9:53 PM 39.0 °F 33.4 °F 28.0 °F 65% 30.12 in 10.0 mi NE 8.1 mph - N/A   Overcast
10:53 PM 39.0 °F 34.0 °F 28.9 °F 67% 30.09 in 10.0 mi NE 6.9 mph - N/A   Overcast
11:53 PM 37.9 °F 30.9 °F 30.0 °F 73% 30.06 in 10.0 mi NE 10.4 mph - N/A   Overcast